Location: Bli��� Lhota
(48.7570°N, 14.0120°E)
Time: 23:00:52
(UTC+00:00)

Cosmos 1092 Rocket - Pass Details

Date: 18 September 2020
Orbit: 955 x 994 km, 82.9° (Epoch: 31 October)

Event Time Altitude Azimuth Distance (km) Brightness Sun altitude
Rises 19:48:44 0° 347° (NNW) 3,646 7.7 -25.4°
Reaches altitude 10° 19:51:16 10° 344° (NNW) 2,698 7.0 -25.7°
Maximum altitude 19:57:17 58° 267° (W) 1,112 4.4 -26.5°
Enters shadow 20:00:15 30° 202° (SSW) 1,648 5.0 -26.9°
